Location: Cisewo
(53.3833°N, 14.9000°E)
Time: 13:31:24
(UTC+00:00)

ALOS 2 - Pass Details

Date: 18 April 2021
Orbit: 630 x 632 km, 97.9° (Epoch: 16 May)

Event Time Altitude Azimuth Distance (km) Brightness Sun altitude
Exits shadow 22:49:46 45° 280° (W) 867 3.3 -25.4°
Drops below altitude 10° 22:53:36 10° 335° (NNW) 2,027 6.1 -25.4°
Sets 22:55:53 0° 342° (NNW) 2,939 7.2 -25.4°
